2021-062D (49024 NORAD) Tracking and Keplerian Element Data

This shows tracking and keplerian element data for the satellite.

Feedback or suggestion? Click here.




ElementValue
Catalog49024
Name2021-062D
Epoch Orbit344
Epoch Day214.84091398
Epoch Year2021
RAAN217.2587
Inclination98.7042
Eccentricity0.0003778
Argument of Perigee205.9696
Mean Anonmoly154.1296
Mean Motion14.27109894
Decay Rate8.9E-07
L11 49024U 21062D 21214.84091398 .00000089 00000-0 54903-4 0 9994
L22 49024 98.7042 217.2587 0003778 205.9696 154.1296 14.27109894 3449

Live tracking and technical data element details for 2021-062D (NORAD 49024). 2021-062D can be tracked NOW for your location showing map with azimuth and elevation plus other details from your city location.

Track the satellite on the map from your city or location and see movement details for azimuth, elevation, latitude, longitude, range, height, and movement on the map or in text.







IsCatalogInMostPopularTable: catalog: 49024, numindb: 16
Update: records affected: 1



GetName: 49024 2021-062D

Hit Count: updated at: Sun, 26 Sep 2021 16:35:56 GMT